Tracking 18957 objects as of 22-Jan-2018
HD Live streaming from Space Station
objects crossing your sky now

FLOCK 2K 01

Track FLOCK 2K 01 now!
10-day predictions
FLOCK 2K 01 is classified as:


NORAD ID: 42852
Int'l Code: 2017-042AD
Perigee: 460.6 km
Apogee: 473.0 km
Inclination: 97.0 °
Period: 93.8 minutes
Semi major axis: 6837 km
RCS: Unknown
Launch date: July 14, 2017
Source: United States (US)
Launch site: TYURATAM MISSILE AND SPACE COMPLEX (TTMTR)
aabbcc
Your satellite tracking list
Your tracking list is empty




NASA's NSSDC Master Catalog

Two Line Element Set (TLE):
1 42852U 17042AD  18021.48555289 +.00008279 +00000-0 +24242-3 0  9996
2 42852 096.9929 285.4498 0009034 290.7198 069.3078 15.35425710029118
Source of the keplerian elements: AFSPC